Time,TemperatureF,DewpointF,PressureIn,WindDirection,WindDirectionDegrees,WindSpeedMPH,WindSpeedGustMPH,Humidity,HourlyPrecipIn,Conditions,Clouds,dailyrainin,SoftwareType,DateUTC
2013-01-11 00:08:00,42.3,39.0,30.15,ESE,105,6.0,6.0,88,0.00,,,0.00,Wunderground v.1.15,2013-01-11 05:08:00,
2013-01-11 00:18:00,42.4,39.1,30.14,ESE,109,6.0,6.0,88,0.00,,,0.00,Wunderground v.1.15,2013-01-11 05:18:00,
2013-01-11 00:28:00,42.7,39.4,30.14,ESE,113,6.0,7.0,88,0.00,,,0.00,Wunderground v.1.15,2013-01-11 05:28:00,
2013-01-11 00:38:00,42.8,39.5,30.14,ESE,107,5.0,5.0,88,0.00,,,0.00,Wunderground v.1.15,2013-01-11 05:38:00,
2013-01-11 00:48:00,42.9,39.6,30.13,ESE,115,7.0,9.0,88,0.00,,,0.00,Wunderground v.1.15,2013-01-11 05:48:00,
2013-01-11 00:58:00,43.0,39.7,30.13,ESE,118,5.0,5.0,88,0.00,,,0.00,Wunderground v.1.15,2013-01-11 05:58:00,
2013-01-11 01:08:00,43.3,40.0,30.13,SE,139,4.0,6.0,88,0.00,,,0.00,Wunderground v.1.15,2013-01-11 06:08:00,
2013-01-11 01:18:00,43.6,40.3,30.12,ESE,117,5.0,5.0,88,0.00,,,0.00,Wunderground v.1.15,2013-01-11 06:18:00,
2013-01-11 01:28:00,43.7,40.4,30.12,ESE,119,5.0,5.0,88,0.00,,,0.00,Wunderground v.1.15,2013-01-11 06:28:00,
2013-01-11 01:38:00,43.8,40.5,30.11,ESE,121,5.0,5.0,88,0.00,,,0.00,Wunderground v.1.15,2013-01-11 06:38:00,
2013-01-11 01:48:00,43.9,40.6,30.10,ESE,115,5.0,5.0,88,0.00,,,0.00,Wunderground v.1.15,2013-01-11 06:48:00,
2013-01-11 01:58:00,44.1,40.8,30.09,SE,126,6.0,6.0,88,0.00,,,0.00,Wunderground v.1.15,2013-01-11 06:58:00,
2013-01-11 02:08:00,44.5,41.2,30.09,SE,132,8.0,8.0,88,0.00,,,0.00,Wunderground v.1.15,2013-01-11 07:08:00,
2013-01-11 02:18:00,44.6,42.4,30.08,SE,132,9.0,11.0,92,0.00,,,0.00,Wunderground v.1.15,2013-01-11 07:18:00,
2013-01-11 02:28:00,44.8,41.5,30.08,SE,128,8.0,8.0,88,0.00,,,0.00,Wunderground v.1.15,2013-01-11 07:28:00,
2013-01-11 02:34:00,44.9,41.6,30.08,SE,145,6.0,8.0,88,0.00,,,0.00,Wunderground v.1.15,2013-01-11 07:34:00,
2013-01-11 02:48:00,45.5,42.2,30.07,ESE,123,8.0,8.0,88,0.00,,,0.00,Wunderground v.1.15,2013-01-11 07:48:00,
2013-01-11 02:58:00,45.6,42.3,30.07,SE,134,10.0,10.0,88,0.00,,,0.00,Wunderground v.1.15,2013-01-11 07:58:00,
2013-01-11 03:08:00,45.6,42.3,30.06,SE,131,8.0,8.0,88,0.00,,,0.00,Wunderground v.1.15,2013-01-11 08:08:00,
2013-01-11 03:18:00,45.6,42.5,30.05,SE,130,7.0,8.0,89,0.00,,,0.00,Wunderground v.1.15,2013-01-11 08:18:00,
2013-01-11 03:28:00,45.6,42.8,30.05,SE,129,6.0,6.0,90,0.00,,,0.00,Wunderground v.1.15,2013-01-11 08:28:00,
2013-01-11 03:38:00,45.6,42.8,30.04,SE,128,6.0,6.0,90,0.00,,,0.00,Wunderground v.1.15,2013-01-11 08:38:00,
2013-01-11 03:48:00,45.9,43.4,30.04,SSE,149,5.0,6.0,91,0.00,,,0.01,Wunderground v.1.15,2013-01-11 08:48:00,
2013-01-11 03:58:00,46.7,44.5,30.02,SE,142,5.0,6.0,92,0.24,,,0.05,Wunderground v.1.15,2013-01-11 08:58:00,
2013-01-11 04:08:00,47.5,45.6,30.01,ESE,122,7.0,13.0,93,0.05,,,0.05,Wunderground v.1.15,2013-01-11 09:08:00,
2013-01-11 04:18:00,48.2,46.3,29.99,SE,131,9.0,12.0,93,0.00,,,0.05,Wunderground v.1.15,2013-01-11 09:18:00,
2013-01-11 04:28:00,48.3,46.4,29.99,SSE,147,9.0,9.0,93,0.00,,,0.05,Wunderground v.1.15,2013-01-11 09:28:00,
2013-01-11 04:38:00,48.9,47.2,29.98,SE,135,9.0,10.0,94,0.00,,,0.06,Wunderground v.1.15,2013-01-11 09:38:00,
2013-01-11 04:48:00,49.5,47.8,29.98,ESE,116,8.0,12.0,94,0.00,,,0.06,Wunderground v.1.15,2013-01-11 09:48:00,
2013-01-11 04:58:00,50.4,48.7,29.97,South,181,9.0,9.0,94,0.00,,,0.06,Wunderground v.1.15,2013-01-11 09:58:00,
2013-01-11 05:08:00,51.2,49.5,29.97,SSE,156,7.0,8.0,94,0.00,,,0.06,Wunderground v.1.15,2013-01-11 10:08:00,
2013-01-11 05:18:00,51.8,49.8,29.97,SE,139,7.0,10.0,93,0.00,,,0.06,Wunderground v.1.15,2013-01-11 10:18:00,
2013-01-11 05:38:00,51.7,49.7,29.96,SE,138,5.0,5.0,93,0.21,,,0.12,Wunderground v.1.15,2013-01-11 10:38:00,
2013-01-11 05:48:00,51.7,49.7,29.97,SSE,168,5.0,5.0,93,0.19,,,0.16,Wunderground v.1.15,2013-01-11 10:48:00,
2013-01-11 06:08:00,51.4,49.7,29.96,South,173,2.0,2.0,94,0.47,,,0.32,Wunderground v.1.15,2013-01-11 11:08:00,
2013-01-11 06:18:00,51.4,49.7,29.94,ESE,117,3.0,5.0,94,0.18,,,0.37,Wunderground v.1.15,2013-01-11 11:18:00,
2013-01-11 06:28:00,51.6,49.9,29.94,SE,136,6.0,6.0,94,0.07,,,0.39,Wunderground v.1.15,2013-01-11 11:28:00,
2013-01-11 06:38:00,51.7,50.3,29.95,SW,226,5.0,5.0,95,0.18,,,0.43,Wunderground v.1.15,2013-01-11 11:38:00,
2013-01-11 06:48:00,51.7,50.0,29.95,South,189,3.0,4.0,94,0.06,,,0.43,Wunderground v.1.15,2013-01-11 11:48:00,
2013-01-11 06:54:00,51.6,49.9,29.96,South,172,3.0,4.0,94,0.05,,,0.44,Wunderground v.1.15,2013-01-11 11:54:00,
2013-01-11 07:08:00,51.5,50.1,29.97,South,176,3.0,3.0,95,0.05,,,0.45,Wunderground v.1.15,2013-01-11 12:08:00,
2013-01-11 07:18:00,51.5,50.1,29.96,SSE,154,2.0,2.0,95,0.05,,,0.46,Wunderground v.1.15,2013-01-11 12:18:00,
2013-01-11 07:28:00,51.7,50.3,29.96,South,184,3.0,3.0,95,0.17,,,0.49,Wunderground v.1.15,2013-01-11 12:28:00,
2013-01-11 07:38:00,51.7,50.3,29.96,South,169,1.0,2.0,95,0.54,,,0.54,Wunderground v.1.15,2013-01-11 12:38:00,
2013-01-11 07:48:00,52.1,50.7,29.93,SE,127,4.0,6.0,95,0.27,,,0.58,Wunderground v.1.15,2013-01-11 12:48:00,
2013-01-11 07:58:00,52.1,50.7,29.92,SSE,159,5.0,5.0,95,0.05,,,0.58,Wunderground v.1.15,2013-01-11 12:58:00,
2013-01-11 08:08:00,52.0,50.6,29.93,SE,138,1.0,2.0,95,0.00,,,0.58,Wunderground v.1.15,2013-01-11 13:08:00,
2013-01-11 08:18:00,52.2,50.8,29.93,SE,146,4.0,4.0,95,0.00,,,0.58,Wunderground v.1.15,2013-01-11 13:18:00,
2013-01-11 08:28:00,52.1,50.7,29.94,SSE,157,5.0,5.0,95,0.00,,,0.58,Wunderground v.1.15,2013-01-11 13:28:00,
2013-01-11 08:39:00,52.2,50.8,29.95,South,169,5.0,5.0,95,0.00,,,0.58,Wunderground v.1.15,2013-01-11 13:39:00,
2013-01-11 08:44:00,52.3,50.9,29.96,South,182,5.0,7.0,95,0.00,,,0.58,Wunderground v.1.15,2013-01-11 13:44:00,
2013-01-11 08:58:00,52.4,51.0,29.95,SSW,196,3.0,3.0,95,0.00,,,0.58,Wunderground v.1.15,2013-01-11 13:58:00,
2013-01-11 09:04:00,52.4,51.0,29.95,SW,236,2.0,3.0,95,0.00,,,0.58,Wunderground v.1.15,2013-01-11 14:04:00,
2013-01-11 09:18:00,53.0,51.9,29.96,South,190,3.0,7.0,96,0.00,,,0.58,Wunderground v.1.15,2013-01-11 14:18:00,
2013-01-11 09:28:00,53.6,52.5,29.96,SSW,209,4.0,4.0,96,0.00,,,0.58,Wunderground v.1.15,2013-01-11 14:28:00,
2013-01-11 09:38:00,54.1,53.0,29.97,SSW,199,4.0,4.0,96,0.00,,,0.58,Wunderground v.1.15,2013-01-11 14:38:00,
2013-01-11 09:48:00,54.3,52.9,29.97,SW,219,5.0,5.0,95,0.00,,,0.58,Wunderground v.1.15,2013-01-11 14:48:00,
2013-01-11 09:58:00,54.5,53.1,29.98,SSW,193,4.0,4.0,95,0.00,,,0.58,Wunderground v.1.15,2013-01-11 14:58:00,
2013-01-11 10:08:00,54.6,52.9,29.97,SW,217,4.0,11.0,94,0.00,,,0.58,Wunderground v.1.15,2013-01-11 15:08:00,
2013-01-11 10:18:00,54.6,52.6,29.97,SSW,194,4.0,4.0,93,0.00,,,0.58,Wunderground v.1.15,2013-01-11 15:18:00,
2013-01-11 10:28:00,54.8,52.8,29.97,South,171,4.0,4.0,93,0.00,,,0.58,Wunderground v.1.15,2013-01-11 15:28:00,
2013-01-11 10:38:00,55.2,52.9,29.97,WSW,251,5.0,13.0,92,0.00,,,0.58,Wunderground v.1.15,2013-01-11 15:38:00,
2013-01-11 10:48:00,55.5,52.9,29.97,SW,221,5.0,8.0,91,0.00,,,0.58,Wunderground v.1.15,2013-01-11 15:48:00,
2013-01-11 10:58:00,55.8,52.9,29.97,SW,233,5.0,10.0,90,0.00,,,0.58,Wunderground v.1.15,2013-01-11 15:58:00,
2013-01-11 11:08:00,56.4,53.2,29.97,South,190,5.0,5.0,89,0.00,,,0.58,Wunderground v.1.15,2013-01-11 16:08:00,
2013-01-11 11:18:00,56.9,53.1,29.97,WSW,248,6.0,10.0,87,0.00,,,0.58,Wunderground v.1.15,2013-01-11 16:18:00,
2013-01-11 11:28:00,57.3,52.2,29.96,SW,219,7.0,13.0,83,0.00,,,0.58,Wunderground v.1.15,2013-01-11 16:28:00,
2013-01-11 11:38:00,57.4,51.9,29.96,South,190,10.0,10.0,82,0.00,,,0.58,Wunderground v.1.15,2013-01-11 16:38:00,
2013-01-11 11:48:00,58.0,52.5,29.96,SW,233,8.0,11.0,82,0.00,,,0.58,Wunderground v.1.15,2013-01-11 16:48:00,
2013-01-11 11:58:00,57.4,52.3,29.95,SW,220,7.0,7.0,83,0.00,,,0.58,Wunderground v.1.15,2013-01-11 16:58:00,
2013-01-11 12:08:00,56.9,51.5,29.95,South,188,8.0,8.0,82,0.00,,,0.58,Wunderground v.1.15,2013-01-11 17:08:00,
2013-01-11 12:18:00,56.6,51.5,29.96,WSW,243,7.0,11.0,83,0.00,,,0.58,Wunderground v.1.15,2013-01-11 17:18:00,
2013-01-11 12:28:00,56.6,51.5,29.95,SW,234,8.0,10.0,83,0.00,,,0.58,Wunderground v.1.15,2013-01-11 17:28:00,
2013-01-11 12:39:00,56.3,51.2,29.95,WSW,243,7.0,7.0,83,0.00,,,0.58,Wunderground v.1.15,2013-01-11 17:39:00,
2013-01-11 12:48:00,56.4,51.3,29.95,South,186,6.0,6.0,83,0.00,,,0.58,Wunderground v.1.15,2013-01-11 17:48:00,
2013-01-11 12:58:00,56.6,50.8,29.95,SW,220,5.0,6.0,81,0.00,,,0.58,Wunderground v.1.15,2013-01-11 17:58:00,
2013-01-11 13:08:00,56.7,50.9,29.94,SW,223,5.0,6.0,81,0.00,,,0.58,Wunderground v.1.15,2013-01-11 18:08:00,
2013-01-11 13:18:00,56.6,50.8,29.94,WSW,246,5.0,7.0,81,0.00,,,0.58,Wunderground v.1.15,2013-01-11 18:18:00,
2013-01-11 13:28:00,57.2,50.7,29.94,SW,226,8.0,8.0,79,0.00,,,0.58,Wunderground v.1.15,2013-01-11 18:28:00,
2013-01-11 13:38:00,57.0,50.9,29.94,SW,221,7.0,7.0,80,0.00,,,0.58,Wunderground v.1.15,2013-01-11 18:38:00,
2013-01-11 13:44:00,57.1,51.0,29.94,WSW,254,7.0,11.0,80,0.00,,,0.58,Wunderground v.1.15,2013-01-11 18:44:00,
2013-01-11 13:58:00,57.9,51.1,29.94,SW,229,8.0,8.0,78,0.00,,,0.58,Wunderground v.1.15,2013-01-11 18:58:00,
2013-01-11 14:08:00,57.7,50.5,29.94,SSW,208,7.0,7.0,77,0.00,,,0.59,Wunderground v.1.15,2013-01-11 19:08:00,
2013-01-11 14:18:00,57.3,50.5,29.94,SSW,213,7.0,8.0,78,0.00,,,0.59,Wunderground v.1.15,2013-01-11 19:18:00,
2013-01-11 14:28:00,57.6,51.1,29.94,WSW,250,6.0,6.0,79,0.00,,,0.59,Wunderground v.1.15,2013-01-11 19:28:00,
2013-01-11 14:38:00,58.0,50.5,29.94,SW,227,7.0,7.0,76,0.00,,,0.59,Wunderground v.1.15,2013-01-11 19:38:00,
2013-01-11 14:48:00,58.7,50.1,29.95,SW,219,7.0,7.0,73,0.00,,,0.59,Wunderground v.1.15,2013-01-11 19:48:00,
2013-01-11 14:58:00,59.4,50.7,29.95,SSW,198,5.0,5.0,73,0.00,,,0.59,Wunderground v.1.15,2013-01-11 19:58:00,
2013-01-11 15:08:00,59.3,51.0,29.95,SW,236,5.0,8.0,74,0.00,,,0.59,Wunderground v.1.15,2013-01-11 20:08:00,
2013-01-11 15:18:00,58.6,49.6,29.94,SSW,200,9.0,9.0,72,0.00,,,0.59,Wunderground v.1.15,2013-01-11 20:18:00,
2013-01-11 15:28:00,58.1,49.5,29.95,WSW,254,7.0,13.0,73,0.00,,,0.59,Wunderground v.1.15,2013-01-11 20:28:00,
2013-01-11 15:38:00,57.8,49.6,29.95,SW,215,6.0,6.0,74,0.00,,,0.59,Wunderground v.1.15,2013-01-11 20:38:00,
2013-01-11 15:48:00,57.7,49.8,29.95,South,186,6.0,6.0,75,0.00,,,0.59,Wunderground v.1.15,2013-01-11 20:48:00,
2013-01-11 15:58:00,58.8,50.5,29.95,South,182,4.0,6.0,74,0.00,,,0.59,Wunderground v.1.15,2013-01-11 20:58:00,
2013-01-11 16:08:00,59.2,50.5,29.95,West,265,4.0,4.0,73,0.00,,,0.59,Wunderground v.1.15,2013-01-11 21:08:00,
2013-01-11 16:18:00,58.6,50.3,29.96,SW,217,5.0,6.0,74,0.00,,,0.59,Wunderground v.1.15,2013-01-11 21:18:00,
2013-01-11 16:28:00,58.6,50.0,29.96,WSW,243,4.0,4.0,73,0.00,,,0.59,Wunderground v.1.15,2013-01-11 21:28:00,
2013-01-11 16:38:00,58.6,50.3,29.96,WSW,252,3.0,6.0,74,0.00,,,0.59,Wunderground v.1.15,2013-01-11 21:38:00,
2013-01-11 16:44:00,58.3,50.0,29.96,SSE,159,4.0,6.0,74,0.00,,,0.59,Wunderground v.1.15,2013-01-11 21:44:00,
2013-01-11 16:58:00,57.3,50.1,29.95,SSW,204,2.0,2.0,77,0.00,,,0.59,Wunderground v.1.15,2013-01-11 21:58:00,
2013-01-11 17:08:00,56.1,49.7,29.95,SSW,204,1.0,1.0,79,0.00,,,0.59,Wunderground v.1.15,2013-01-11 22:08:00,
2013-01-11 17:18:00,55.6,49.5,29.95,SSW,204,1.0,3.0,80,0.00,,,0.59,Wunderground v.1.15,2013-01-11 22:18:00,
2013-01-11 17:28:00,55.1,49.4,29.96,SSW,204,0.0,0.0,81,0.00,,,0.59,Wunderground v.1.15,2013-01-11 22:28:00,
2013-01-11 17:38:00,54.4,49.0,29.96,SSW,204,0.0,0.0,82,0.00,,,0.59,Wunderground v.1.15,2013-01-11 22:38:00,
2013-01-11 17:48:00,53.5,48.5,29.96,SSW,204,0.0,0.0,83,0.00,,,0.59,Wunderground v.1.15,2013-01-11 22:48:00,
2013-01-11 17:58:00,52.6,47.9,29.96,SSW,204,0.0,0.0,84,0.00,,,0.59,Wunderground v.1.15,2013-01-11 22:58:00,
2013-01-11 18:09:00,52.0,47.6,29.96,SSW,204,0.0,0.0,85,0.00,,,0.59,Wunderground v.1.15,2013-01-11 23:09:00,
2013-01-11 18:19:00,51.5,47.5,29.96,SSW,204,0.0,0.0,86,0.00,,,0.59,Wunderground v.1.15,2013-01-11 23:19:00,
2013-01-11 18:28:00,51.4,47.4,29.96,SSW,204,0.0,0.0,86,0.00,,,0.59,Wunderground v.1.15,2013-01-11 23:28:00,
2013-01-11 18:38:00,50.9,47.2,29.97,SSW,204,0.0,0.0,87,0.00,,,0.59,Wunderground v.1.15,2013-01-11 23:38:00,
2013-01-11 18:48:00,50.8,47.1,29.97,SSW,204,0.0,0.0,87,0.00,,,0.59,Wunderground v.1.15,2013-01-11 23:48:00,
2013-01-11 18:54:00,50.6,46.6,29.97,SSW,204,0.0,0.0,86,0.00,,,0.59,Wunderground v.1.15,2013-01-11 23:54:00,
2013-01-11 19:08:00,49.9,46.2,29.96,SSW,204,0.0,0.0,87,0.00,,,0.59,Wunderground v.1.15,2013-01-12 00:08:00,
2013-01-11 19:18:00,49.5,46.1,29.96,SSW,204,0.0,0.0,88,0.00,,,0.59,Wunderground v.1.15,2013-01-12 00:18:00,
2013-01-11 19:28:00,49.2,46.1,29.96,SSW,204,0.0,0.0,89,0.00,,,0.59,Wunderground v.1.15,2013-01-12 00:28:00,
2013-01-11 19:38:00,48.8,45.7,29.97,SSW,204,0.0,0.0,89,0.00,,,0.59,Wunderground v.1.15,2013-01-12 00:38:00,
2013-01-11 19:48:00,48.5,45.7,29.97,SSW,204,0.0,0.0,90,0.00,,,0.59,Wunderground v.1.15,2013-01-12 00:48:00,
2013-01-11 19:58:00,48.4,45.6,29.97,SSW,204,0.0,0.0,90,0.00,,,0.59,Wunderground v.1.15,2013-01-12 00:58:00,
2013-01-11 20:09:00,48.9,46.1,29.96,South,187,0.0,0.0,90,0.00,,,0.59,Wunderground v.1.15,2013-01-12 01:09:00,
2013-01-11 20:18:00,49.2,46.4,29.96,South,187,0.0,0.0,90,0.00,,,0.59,Wunderground v.1.15,2013-01-12 01:18:00,
2013-01-11 20:28:00,49.1,46.3,29.96,South,178,0.0,3.0,90,0.00,,,0.59,Wunderground v.1.15,2013-01-12 01:28:00,
2013-01-11 20:39:00,49.9,47.1,29.96,SW,214,0.0,0.0,90,0.00,,,0.59,Wunderground v.1.15,2013-01-12 01:39:00,
2013-01-11 20:48:00,50.3,47.2,29.96,SSW,194,0.0,0.0,89,0.00,,,0.59,Wunderground v.1.15,2013-01-12 01:48:00,
2013-01-11 20:58:00,50.9,47.5,29.97,South,190,0.0,0.0,88,0.00,,,0.59,Wunderground v.1.15,2013-01-12 01:58:00,
2013-01-11 21:08:00,50.7,47.0,29.96,South,190,0.0,0.0,87,0.00,,,0.59,Wunderground v.1.15,2013-01-12 02:08:00,
2013-01-11 21:18:00,50.2,46.5,29.96,South,190,0.0,0.0,87,0.00,,,0.59,Wunderground v.1.15,2013-01-12 02:18:00,
2013-01-11 21:28:00,50.0,46.6,29.97,South,190,0.0,0.0,88,0.00,,,0.59,Wunderground v.1.15,2013-01-12 02:28:00,
2013-01-11 21:38:00,50.8,47.1,29.97,South,173,1.0,1.0,87,0.00,,,0.59,Wunderground v.1.15,2013-01-12 02:38:00,
2013-01-11 21:48:00,51.1,47.1,29.97,SSW,210,1.0,2.0,86,0.00,,,0.59,Wunderground v.1.15,2013-01-12 02:48:00,
2013-01-11 21:59:00,51.4,47.4,29.97,SSW,210,1.0,1.0,86,0.00,,,0.59,Wunderground v.1.15,2013-01-12 02:59:00,
2013-01-11 22:09:00,51.1,47.1,29.97,SSW,199,0.0,0.0,86,0.00,,,0.59,Wunderground v.1.15,2013-01-12 03:09:00,
2013-01-11 22:18:00,51.2,47.2,29.97,SSW,212,1.0,1.0,86,0.00,,,0.59,Wunderground v.1.15,2013-01-12 03:18:00,
2013-01-11 22:28:00,51.4,47.4,29.97,SSW,213,1.0,1.0,86,0.00,,,0.59,Wunderground v.1.15,2013-01-12 03:28:00,
2013-01-11 22:38:00,51.2,46.8,29.97,South,180,0.0,0.0,85,0.00,,,0.59,Wunderground v.1.15,2013-01-12 03:38:00,
2013-01-11 22:48:00,51.0,47.0,29.97,South,180,0.0,0.0,86,0.00,,,0.59,Wunderground v.1.15,2013-01-12 03:48:00,
2013-01-11 22:58:00,50.6,46.9,29.97,South,180,0.0,0.0,87,0.00,,,0.59,Wunderground v.1.15,2013-01-12 03:58:00,
2013-01-11 23:08:00,50.6,46.9,29.97,SW,224,0.0,0.0,87,0.00,,,0.59,Wunderground v.1.15,2013-01-12 04:08:00,
2013-01-11 23:18:00,50.4,46.7,29.97,SW,224,0.0,0.0,87,0.00,,,0.59,Wunderground v.1.15,2013-01-12 04:18:00,
2013-01-11 23:29:00,50.2,46.5,29.97,SE,144,0.0,0.0,87,0.00,,,0.59,Wunderground v.1.15,2013-01-12 04:29:00,
2013-01-11 23:38:00,49.9,46.5,29.96,SE,144,0.0,0.0,88,0.00,,,0.59,Wunderground v.1.15,2013-01-12 04:38:00,
2013-01-11 23:49:00,49.5,46.1,29.96,SE,144,0.0,0.0,88,0.00,,,0.59,Wunderground v.1.15,2013-01-12 04:49:00,
2013-01-11 23:54:00,49.4,46.3,29.97,SE,144,0.0,0.0,89,0.00,,,0.59,Wunderground v.1.15,2013-01-12 04:54:00,